Time,TemperatureF,DewpointF,PressureIn,WindDirection,WindDirectionDegrees,WindSpeedMPH,WindSpeedGustMPH,Humidity,HourlyPrecipIn,Conditions,Clouds,dailyrainin,SoftwareType,DateUTC
2013-08-09 00:00:00,58.4,58.4,29.86,ESE,112,0.0,0.0,100,0.00,,OVC110,0.00,VWS V12.07,2013-08-09 05:00:00,
2013-08-09 00:10:00,58.4,58.4,29.86,ESE,112,0.0,0.0,100,0.00,,OVC110,0.00,VWS V12.07,2013-08-09 05:10:00,
2013-08-09 00:20:00,58.3,58.3,29.86,ESE,112,0.0,0.0,100,0.00,,OVC110,0.00,VWS V12.07,2013-08-09 05:20:00,
2013-08-09 00:30:00,58.3,58.3,29.86,ESE,112,0.0,0.0,100,0.00,,OVC110,0.00,VWS V12.07,2013-08-09 05:30:00,
2013-08-09 00:40:00,58.3,58.3,29.86,ESE,112,0.0,1.0,100,0.00,,OVC110,0.00,VWS V12.07,2013-08-09 05:40:00,
2013-08-09 00:50:00,58.3,58.3,29.86,ESE,112,0.0,0.0,100,0.00,,OVC110,0.00,VWS V12.07,2013-08-09 05:50:00,
2013-08-09 01:00:00,58.3,58.3,29.86,ESE,112,0.0,0.0,100,0.00,,OVC110,0.00,VWS V12.07,2013-08-09 06:00:00,
2013-08-09 01:10:00,58.3,58.3,29.86,ESE,112,0.0,0.0,100,0.00,,OVC110,0.00,VWS V12.07,2013-08-09 06:10:00,
2013-08-09 01:20:00,58.1,58.1,29.86,ESE,112,0.0,0.0,100,0.00,,OVC110,0.00,VWS V12.07,2013-08-09 06:20:00,
2013-08-09 01:30:00,58.1,58.1,29.86,ESE,112,0.0,0.0,100,0.00,,OVC110,0.00,VWS V12.07,2013-08-09 06:30:00,
2013-08-09 01:40:00,58.3,58.3,29.86,ESE,112,0.0,0.0,100,0.00,,OVC110,0.00,VWS V12.07,2013-08-09 06:40:00,
2013-08-09 01:50:00,58.3,58.3,29.85,ESE,112,0.0,0.0,100,0.00,,OVC110,0.00,VWS V12.07,2013-08-09 06:50:00,
2013-08-09 02:00:00,58.1,58.1,29.85,ESE,112,0.0,0.0,100,0.00,,OVC110,0.00,VWS V12.07,2013-08-09 07:00:00,
2013-08-09 02:10:00,58.0,58.0,29.85,ESE,112,0.0,0.0,100,0.00,,OVC110,0.00,VWS V12.07,2013-08-09 07:10:00,
2013-08-09 02:20:00,58.1,58.1,29.85,ESE,112,0.0,0.0,100,0.00,,OVC110,0.00,VWS V12.07,2013-08-09 07:20:00,
2013-08-09 02:30:00,58.1,58.1,29.85,ESE,112,0.0,0.0,100,0.00,,OVC110,0.00,VWS V12.07,2013-08-09 07:30:00,
2013-08-09 02:40:00,58.0,58.0,29.85,ESE,112,0.0,0.0,100,0.00,,OVC110,0.00,VWS V12.07,2013-08-09 07:40:00,
2013-08-09 02:50:00,58.1,58.1,29.85,ESE,112,0.0,0.0,100,0.00,,OVC110,0.00,VWS V12.07,2013-08-09 07:50:00,
2013-08-09 03:00:00,58.1,58.1,29.85,ESE,112,0.0,1.0,100,0.00,,OVC110,0.00,VWS V12.07,2013-08-09 08:00:00,
2013-08-09 03:10:00,58.1,58.1,29.85,ESE,112,0.0,0.0,100,0.00,,OVC110,0.00,VWS V12.07,2013-08-09 08:10:00,
2013-08-09 03:20:00,58.1,58.1,29.85,ESE,112,0.0,0.0,100,0.00,,OVC110,0.00,VWS V12.07,2013-08-09 08:20:00,
2013-08-09 03:30:00,58.0,58.0,29.85,ESE,112,0.0,0.0,100,0.00,,OVC110,0.00,VWS V12.07,2013-08-09 08:30:00,
2013-08-09 03:40:00,58.0,58.0,29.85,ESE,112,0.0,0.0,100,0.00,,OVC110,0.00,VWS V12.07,2013-08-09 08:40:00,
2013-08-09 03:50:00,57.8,57.8,29.84,ESE,112,0.0,0.0,100,0.00,,OVC110,0.00,VWS V12.07,2013-08-09 08:50:00,
2013-08-09 04:00:00,57.8,57.8,29.84,ESE,112,0.0,0.0,100,0.00,,OVC110,0.00,VWS V12.07,2013-08-09 09:00:00,
2013-08-09 04:10:00,57.5,57.5,29.84,ESE,112,0.0,0.0,100,0.00,,OVC110,0.00,VWS V12.07,2013-08-09 09:10:00,
2013-08-09 04:20:00,57.2,57.2,29.84,ESE,112,0.0,0.0,100,0.00,,OVC110,0.00,VWS V12.07,2013-08-09 09:20:00,
2013-08-09 04:30:00,56.9,56.9,29.85,ESE,112,0.0,0.0,100,0.00,,OVC110,0.00,VWS V12.07,2013-08-09 09:30:00,
2013-08-09 04:40:00,56.6,56.6,29.85,ESE,112,0.0,0.0,100,0.00,,OVC110,0.00,VWS V12.07,2013-08-09 09:40:00,
2013-08-09 04:50:00,56.6,56.6,29.84,ESE,112,0.0,0.0,100,0.00,,OVC110,0.00,VWS V12.07,2013-08-09 09:50:00,
2013-08-09 05:00:00,56.3,56.3,29.84,ESE,112,0.0,0.0,100,0.00,,OVC110,0.00,VWS V12.07,2013-08-09 10:00:00,
2013-08-09 05:10:00,56.0,56.0,29.84,ESE,112,0.0,0.0,100,0.00,,OVC110,0.00,VWS V12.07,2013-08-09 10:10:00,
2013-08-09 05:20:00,55.9,55.9,29.85,ESE,112,0.0,0.0,100,0.00,,OVC110,0.00,VWS V12.07,2013-08-09 10:20:00,
2013-08-09 05:30:00,55.9,55.9,29.85,ESE,112,0.0,0.0,100,0.00,,OVC110,0.00,VWS V12.07,2013-08-09 10:30:00,
2013-08-09 05:40:00,56.0,56.0,29.85,ESE,112,0.0,0.0,100,0.00,,OVC110,0.00,VWS V12.07,2013-08-09 10:40:00,
2013-08-09 05:50:00,56.2,56.2,29.85,ESE,112,0.0,1.0,100,0.00,,OVC110,0.00,VWS V12.07,2013-08-09 10:50:00,
2013-08-09 06:00:00,56.0,56.0,29.85,ESE,112,0.0,0.0,100,0.00,,OVC110,0.00,VWS V12.07,2013-08-09 11:00:00,
2013-08-09 06:10:00,56.0,56.0,29.85,ESE,112,0.0,0.0,100,0.00,,OVC110,0.00,VWS V12.07,2013-08-09 11:10:00,
2013-08-09 06:20:00,56.0,56.0,29.85,ESE,112,0.0,0.0,100,0.00,,OVC110,0.00,VWS V12.07,2013-08-09 11:20:00,
2013-08-09 06:30:00,55.9,55.9,29.85,ESE,112,0.0,0.0,100,0.00,,OVC110,0.00,VWS V12.07,2013-08-09 11:30:00,
2013-08-09 06:40:00,55.6,55.6,29.85,ESE,112,0.0,0.0,100,0.00,,OVC110,0.00,VWS V12.07,2013-08-09 11:40:00,
2013-08-09 06:50:00,55.3,55.3,29.85,ESE,112,0.0,0.0,100,0.00,,OVC110,0.00,VWS V12.07,2013-08-09 11:50:00,
2013-08-09 07:00:00,55.1,55.1,29.86,ESE,112,0.0,0.0,100,0.00,,OVC110,0.00,VWS V12.07,2013-08-09 12:00:00,
2013-08-09 07:10:00,55.0,55.0,29.86,ESE,112,0.0,0.0,100,0.00,,OVC110,0.00,VWS V12.07,2013-08-09 12:10:00,
2013-08-09 07:20:00,55.1,55.1,29.87,ESE,112,0.0,0.0,100,0.00,,OVC110,0.00,VWS V12.07,2013-08-09 12:20:00,
2013-08-09 07:30:00,55.4,55.4,29.87,ESE,112,0.0,0.0,100,0.00,,OVC110,0.00,VWS V12.07,2013-08-09 12:30:00,
2013-08-09 07:40:00,55.6,55.6,29.87,ESE,112,0.0,0.0,100,0.00,,OVC110,0.00,VWS V12.07,2013-08-09 12:40:00,
2013-08-09 07:50:00,55.7,55.7,29.86,ESE,112,0.0,0.0,100,0.00,,OVC110,0.00,VWS V12.07,2013-08-09 12:50:00,
2013-08-09 08:00:00,55.9,55.9,29.86,ESE,112,0.0,0.0,100,0.00,,OVC110,0.00,VWS V12.07,2013-08-09 13:00:00,
2013-08-09 08:10:00,56.0,56.0,29.86,ESE,112,0.0,0.0,100,0.00,,OVC110,0.00,VWS V12.07,2013-08-09 13:10:00,
2013-08-09 08:20:00,56.5,56.5,29.87,ESE,112,0.0,2.0,100,0.00,,OVC110,0.00,VWS V12.07,2013-08-09 13:20:00,
2013-08-09 08:30:00,56.6,56.6,29.87,ESE,112,0.0,1.0,100,0.00,,OVC110,0.00,VWS V12.07,2013-08-09 13:30:00,
2013-08-09 08:40:00,57.2,57.2,29.87,ENE,68,0.0,4.0,100,0.00,,OVC110,0.00,VWS V12.07,2013-08-09 13:40:00,
2013-08-09 08:50:00,58.0,58.0,29.87,ENE,68,0.0,1.0,100,0.00,,OVC110,0.00,VWS V12.07,2013-08-09 13:50:00,
2013-08-09 09:00:00,58.6,58.6,29.87,ENE,68,0.0,2.0,100,0.00,,OVC110,0.00,VWS V12.07,2013-08-09 14:00:00,
2013-08-09 09:10:00,59.2,59.2,29.87,NE,45,0.0,2.0,100,0.00,,OVC110,0.00,VWS V12.07,2013-08-09 14:10:00,
2013-08-09 09:20:00,59.3,59.3,29.87,ENE,68,0.0,2.0,100,0.00,,OVC110,0.00,VWS V12.07,2013-08-09 14:20:00,
2013-08-09 09:30:00,59.8,58.4,29.87,ENE,68,1.0,4.0,95,0.00,,OVC110,0.00,VWS V12.07,2013-08-09 14:30:00,
2013-08-09 09:40:00,59.6,56.4,29.87,NE,45,1.0,7.0,89,0.00,,OVC110,0.00,VWS V12.07,2013-08-09 14:40:00,
2013-08-09 09:50:00,59.8,54.3,29.87,NE,45,1.0,4.0,82,0.00,,OVC110,0.00,VWS V12.07,2013-08-09 14:50:00,
2013-08-09 10:00:00,60.7,54.5,29.88,WNW,292,1.0,5.0,80,0.00,,OVC110,0.00,VWS V12.07,2013-08-09 15:00:00,
2013-08-09 10:10:00,61.0,53.8,29.88,SE,135,1.0,7.0,77,0.00,,OVC110,0.00,VWS V12.07,2013-08-09 15:10:00,
2013-08-09 10:20:00,61.8,52.3,29.88,East,90,1.0,4.0,71,0.00,,OVC110,0.00,VWS V12.07,2013-08-09 15:20:00,
2013-08-09 10:30:00,62.6,51.9,29.88,SSE,158,1.0,4.0,68,0.00,,OVC110,0.00,VWS V12.07,2013-08-09 15:30:00,
2013-08-09 10:40:00,63.4,52.3,29.88,ENE,68,0.0,3.0,67,0.00,,OVC110,0.00,VWS V12.07,2013-08-09 15:40:00,
2013-08-09 10:50:00,64.2,51.4,29.87,ENE,68,1.0,9.0,63,0.00,,OVC110,0.00,VWS V12.07,2013-08-09 15:50:00,
2013-08-09 11:00:00,64.8,50.2,29.88,East,90,1.0,5.0,59,0.00,,OVC110,0.00,VWS V12.07,2013-08-09 16:00:00,
2013-08-09 11:10:00,64.3,50.1,29.88,NE,45,1.0,6.0,60,0.00,,OVC110,0.00,VWS V12.07,2013-08-09 16:10:00,
2013-08-09 11:20:00,63.7,50.9,29.88,NE,45,1.0,10.0,63,0.00,,OVC110,0.00,VWS V12.07,2013-08-09 16:20:00,
2013-08-09 11:30:00,64.5,52.5,29.88,NE,45,2.0,9.0,65,0.00,,OVC110,0.00,VWS V12.07,2013-08-09 16:30:00,
2013-08-09 11:40:00,65.2,50.1,29.88,NE,45,1.0,6.0,58,0.00,,OVC110,0.00,VWS V12.07,2013-08-09 16:40:00,
2013-08-09 11:50:00,65.8,50.2,29.87,SE,135,1.0,4.0,57,0.00,,OVC110,0.00,VWS V12.07,2013-08-09 16:50:00,
2013-08-09 12:00:00,65.6,51.8,29.88,SSW,202,1.0,6.0,61,0.00,,OVC110,0.00,VWS V12.07,2013-08-09 17:00:00,
2013-08-09 12:10:00,66.8,50.6,29.88,ESE,112,1.0,4.0,56,0.00,,OVC110,0.00,VWS V12.07,2013-08-09 17:10:00,
2013-08-09 12:20:00,66.9,50.2,29.88,WSW,248,1.0,5.0,55,0.00,,OVC110,0.00,VWS V12.07,2013-08-09 17:20:00,
2013-08-09 12:30:00,68.6,49.8,29.87,ENE,68,1.0,5.0,51,0.00,,OVC110,0.00,VWS V12.07,2013-08-09 17:30:00,
2013-08-09 12:40:00,67.4,49.7,29.87,NE,45,2.0,9.0,53,0.00,,OVC110,0.00,VWS V12.07,2013-08-09 17:40:00,
2013-08-09 12:50:00,67.3,48.6,29.88,SSW,202,2.0,7.0,51,0.00,,OVC110,0.00,VWS V12.07,2013-08-09 17:50:00,
2013-08-09 13:00:00,66.0,49.9,29.88,NNE,22,1.0,11.0,56,0.00,,OVC110,0.00,VWS V12.07,2013-08-09 18:00:00,
2013-08-09 13:10:00,67.3,49.1,29.88,NNE,22,1.0,9.0,52,0.00,,OVC110,0.00,VWS V12.07,2013-08-09 18:10:00,
2013-08-09 13:20:00,67.4,49.2,29.87,NE,45,1.0,5.0,52,0.00,,OVC110,0.00,VWS V12.07,2013-08-09 18:20:00,
2013-08-09 13:30:00,66.0,49.9,29.87,NNE,22,1.0,5.0,56,0.00,,OVC110,0.00,VWS V12.07,2013-08-09 18:30:00,
2013-08-09 13:40:00,65.6,50.0,29.87,NE,45,1.0,4.0,57,0.00,,OVC110,0.00,VWS V12.07,2013-08-09 18:40:00,
2013-08-09 13:50:00,67.1,49.4,29.87,ENE,68,1.0,4.0,53,0.00,,OVC110,0.00,VWS V12.07,2013-08-09 18:50:00,
2013-08-09 14:00:00,68.6,50.8,29.87,WNW,292,0.0,10.0,53,0.00,,OVC110,0.00,VWS V12.07,2013-08-09 19:00:00,
2013-08-09 14:10:00,68.4,51.1,29.87,NNE,22,2.0,5.0,54,0.00,,OVC110,0.00,VWS V12.07,2013-08-09 19:10:00,
2013-08-09 14:20:00,66.9,49.2,29.87,ENE,68,1.0,6.0,53,0.00,,OVC110,0.00,VWS V12.07,2013-08-09 19:20:00,
2013-08-09 14:30:00,66.6,48.4,29.87,WNW,292,1.0,5.0,52,0.00,,OVC110,0.00,VWS V12.07,2013-08-09 19:30:00,
2013-08-09 14:40:00,66.8,50.1,29.87,NE,45,1.0,5.0,55,0.00,,OVC110,0.00,VWS V12.07,2013-08-09 19:40:00,
2013-08-09 14:50:00,66.6,50.0,29.88,North,0,1.0,6.0,55,0.00,,OVC110,0.00,VWS V12.07,2013-08-09 19:50:00,
2013-08-09 15:00:00,67.8,50.6,29.87,NNE,22,2.0,12.0,54,0.00,,OVC110,0.00,VWS V12.07,2013-08-09 20:00:00,
2013-08-09 15:10:00,67.8,50.6,29.87,East,90,2.0,7.0,54,0.00,,OVC110,0.00,VWS V12.07,2013-08-09 20:10:00,
2013-08-09 15:20:00,69.3,49.9,29.87,WSW,248,1.0,10.0,50,0.00,,OVC110,0.00,VWS V12.07,2013-08-09 20:20:00,
2013-08-09 15:30:00,69.3,51.5,29.87,ENE,68,1.0,10.0,53,0.00,,OVC110,0.00,VWS V12.07,2013-08-09 20:30:00,
2013-08-09 15:40:00,67.8,51.5,29.87,ENE,68,1.0,7.0,56,0.00,,OVC110,0.00,VWS V12.07,2013-08-09 20:40:00,
2013-08-09 15:50:00,66.4,51.7,29.89,East,90,1.0,6.0,59,0.00,,OVC110,0.00,VWS V12.07,2013-08-09 20:50:00,
2013-08-09 16:00:00,65.8,51.1,29.89,ENE,68,0.0,4.0,59,0.00,,OVC110,0.00,VWS V12.07,2013-08-09 21:00:00,
2013-08-09 16:10:00,66.0,51.7,29.89,ENE,68,1.0,3.0,60,0.00,,OVC110,0.00,VWS V12.07,2013-08-09 21:10:00,
2013-08-09 16:20:00,65.6,51.4,29.90,NNE,22,1.0,4.0,60,0.00,,OVC110,0.00,VWS V12.07,2013-08-09 21:20:00,
2013-08-09 16:30:00,65.3,52.0,29.91,ENE,68,0.0,3.0,62,0.00,,OVC110,0.00,VWS V12.07,2013-08-09 21:30:00,
2013-08-09 16:40:00,64.8,51.0,29.91,ENE,68,0.0,5.0,61,0.00,,OVC110,0.00,VWS V12.07,2013-08-09 21:40:00,
2013-08-09 16:50:00,64.7,51.0,29.91,NE,45,0.0,4.0,61,0.00,,OVC110,0.00,VWS V12.07,2013-08-09 21:50:00,
2013-08-09 17:00:00,64.5,50.8,29.91,NE,45,1.0,4.0,61,0.00,,OVC110,0.00,VWS V12.07,2013-08-09 22:00:00,
2013-08-09 17:10:00,64.3,50.6,29.91,NNE,22,0.0,2.0,61,0.00,,OVC110,0.00,VWS V12.07,2013-08-09 22:10:00,
2013-08-09 17:20:00,64.2,51.4,29.91,NE,45,0.0,5.0,63,0.00,,OVC110,0.00,VWS V12.07,2013-08-09 22:20:00,
2013-08-09 17:30:00,63.9,51.1,29.92,NE,45,0.0,1.0,63,0.00,,OVC110,0.00,VWS V12.07,2013-08-09 22:30:00,
2013-08-09 17:40:00,64.0,52.4,29.92,ENE,68,0.0,2.0,66,0.00,,OVC110,0.00,VWS V12.07,2013-08-09 22:40:00,
2013-08-09 17:50:00,63.9,51.5,29.91,NE,45,1.0,4.0,64,0.00,,OVC110,0.00,VWS V12.07,2013-08-09 22:50:00,
2013-08-09 18:00:00,63.7,51.7,29.92,NE,45,0.0,2.0,65,0.00,,OVC110,0.00,VWS V12.07,2013-08-09 23:00:00,
2013-08-09 18:10:00,63.5,51.5,29.92,NE,45,0.0,2.0,65,0.00,,OVC110,0.00,VWS V12.07,2013-08-09 23:10:00,
2013-08-09 18:20:00,63.4,52.3,29.92,NE,45,0.0,3.0,67,0.00,,OVC110,0.00,VWS V12.07,2013-08-09 23:20:00,
2013-08-09 18:30:00,63.1,52.4,29.92,NE,45,0.0,3.0,68,0.00,,OVC110,0.00,VWS V12.07,2013-08-09 23:30:00,
2013-08-09 18:40:00,63.1,52.8,29.92,NE,45,0.0,1.0,69,0.00,,OVC110,0.00,VWS V12.07,2013-08-09 23:40:00,
2013-08-09 18:50:00,62.9,53.0,29.92,NE,45,0.0,0.0,70,0.00,,OVC110,0.00,VWS V12.07,2013-08-09 23:50:00,
2013-08-09 19:00:00,62.6,53.1,29.93,NE,45,0.0,2.0,71,0.00,,OVC110,0.00,VWS V12.07,2013-08-10 00:00:00,
2013-08-09 19:10:00,62.4,53.3,29.93,NE,45,0.0,5.0,72,0.00,,OVC110,0.00,VWS V12.07,2013-08-10 00:10:00,
2013-08-09 19:20:00,62.1,52.6,29.93,NE,45,0.0,1.0,71,0.00,,OVC110,0.00,VWS V12.07,2013-08-10 00:20:00,
2013-08-09 19:30:00,62.0,52.5,29.93,NE,45,0.0,1.0,71,0.00,,OVC110,0.00,VWS V12.07,2013-08-10 00:30:00,
2013-08-09 19:40:00,61.8,52.3,29.93,NE,45,0.0,1.0,71,0.00,,OVC110,0.00,VWS V12.07,2013-08-10 00:40:00,
2013-08-09 19:50:00,61.5,52.8,29.93,NE,45,0.0,0.0,73,0.00,,OVC110,0.00,VWS V12.07,2013-08-10 00:50:00,
2013-08-09 20:00:00,61.0,51.9,29.94,NE,45,0.0,0.0,72,0.00,,OVC110,0.00,VWS V12.07,2013-08-10 01:00:00,
2013-08-09 20:10:00,60.5,51.4,29.94,NE,45,0.0,0.0,72,0.00,,OVC110,0.00,VWS V12.07,2013-08-10 01:10:00,
2013-08-09 20:20:00,60.2,51.5,29.94,NE,45,0.0,0.0,73,0.00,,OVC110,0.00,VWS V12.07,2013-08-10 01:20:00,
2013-08-09 20:30:00,59.9,51.6,29.95,NE,45,0.0,0.0,74,0.00,,OVC110,0.00,VWS V12.07,2013-08-10 01:30:00,
2013-08-09 20:40:00,59.5,51.6,29.95,NE,45,0.0,0.0,75,0.00,,OVC110,0.00,VWS V12.07,2013-08-10 01:40:00,
2013-08-09 20:50:00,59.0,51.8,29.95,NE,45,0.0,0.0,77,0.00,,OVC110,0.00,VWS V12.07,2013-08-10 01:50:00,
2013-08-09 21:00:00,58.4,51.9,29.96,NE,45,0.0,0.0,79,0.00,,OVC110,0.00,VWS V12.07,2013-08-10 02:00:00,
2013-08-09 21:10:00,57.5,51.7,29.96,NE,45,0.0,0.0,81,0.00,,OVC110,0.00,VWS V12.07,2013-08-10 02:10:00,
2013-08-09 21:20:00,56.9,51.8,29.96,NE,45,0.0,0.0,83,0.00,,OVC110,0.00,VWS V12.07,2013-08-10 02:20:00,
2013-08-09 21:30:00,56.5,52.0,29.97,NE,45,0.0,0.0,85,0.00,,OVC110,0.00,VWS V12.07,2013-08-10 02:30:00,
2013-08-09 21:40:00,56.0,51.9,29.97,NE,45,0.0,0.0,86,0.00,,OVC110,0.00,VWS V12.07,2013-08-10 02:40:00,
2013-08-09 21:50:00,55.4,51.9,29.97,NE,45,0.0,0.0,88,0.00,,OVC110,0.00,VWS V12.07,2013-08-10 02:50:00,
2013-08-09 22:00:00,55.0,51.8,29.97,NE,45,0.0,0.0,89,0.00,,OVC110,0.00,VWS V12.07,2013-08-10 03:00:00,
2013-08-09 22:10:00,54.5,51.9,29.97,NE,45,0.0,0.0,91,0.00,,OVC110,0.00,VWS V12.07,2013-08-10 03:10:00,
2013-08-09 22:20:00,54.4,52.4,29.97,NE,45,0.0,0.0,93,0.00,,OVC110,0.00,VWS V12.07,2013-08-10 03:20:00,
2013-08-09 22:30:00,54.1,52.1,29.97,NE,45,0.0,0.0,93,0.00,,OVC110,0.00,VWS V12.07,2013-08-10 03:30:00,
2013-08-09 22:40:00,53.9,52.2,29.97,NE,45,0.0,0.0,94,0.00,,OVC110,0.00,VWS V12.07,2013-08-10 03:40:00,
2013-08-09 22:50:00,53.8,52.7,29.97,NE,45,0.0,0.0,96,0.00,,OVC110,0.00,VWS V12.07,2013-08-10 03:50:00,
2013-08-09 23:00:00,53.5,53.0,29.97,NE,45,0.0,0.0,98,0.00,,OVC110,0.00,VWS V12.07,2013-08-10 04:00:00,
2013-08-09 23:10:00,53.2,52.9,29.97,NE,45,0.0,0.0,99,0.00,,OVC110,0.00,VWS V12.07,2013-08-10 04:10:00,
2013-08-09 23:20:00,52.9,52.9,29.98,NE,45,0.0,0.0,100,0.00,,OVC110,0.00,VWS V12.07,2013-08-10 04:20:00,
2013-08-09 23:30:00,52.8,52.8,29.98,NE,45,0.0,0.0,100,0.00,,OVC110,0.00,VWS V12.07,2013-08-10 04:30:00,
2013-08-09 23:40:00,52.6,52.6,29.98,NE,45,0.0,0.0,100,0.00,,OVC110,0.00,VWS V12.07,2013-08-10 04:40:00,
2013-08-09 23:50:00,52.5,52.5,29.98,NE,45,0.0,0.0,100,0.00,,OVC110,0.00,VWS V12.07,2013-08-10 04:50:00,